User: anonymous   Login
Location: Vancouver
(49.2500°N, 123.1330°W)
Time: 11:16:37
(UTC-08:00)
Language:

BREEZE-M DEB (TANK) - Orbit

View from above orbital plane
View from above orbital plane
View from above satellite
View from above satellite

Ground track
Ground track

The orbit data is extracted from the following two-line orbital elements,

1 27821U 03024B   17018.40631886 +.00003360 +00000-0 +30946-3 0  9999
2 27821 049.6155 049.2004 4950351 275.4369 032.3054 05.74745840271836
Epoch (UTC): 18 January 2017 09:45:05
Eccentricity: 0.4950351
inclination: 49.6155°
perigee height: 269 km
apogee height: 13304 km
right ascension of ascending node: 49.2004°
argument of perigee: 275.4369°
revolutions per day: 5.74745840
mean anomaly at epoch: 32.3054°
orbit number at epoch: 27183

The dashed part of the orbit path shows where the satellite is in the earth's shadow,  

DLR